User: anonymous   Login
Location: Utrecht
(52.0830°N, 5.1330°E)
Time: 17:50:21
(UTC+01:00)
Language:

Cosmos 1092 Rocket - Orbit

View from above orbital plane
View from above orbital plane
View from above satellite
View from above satellite

Ground track
Ground track

The orbit data is extracted from the following two-line orbital elements,

1 11327U 79030B   15057.92133829  .00000006  00000-0 -91516-5 0  9992
2 11327 082.9504 200.4949 0027839 017.2872 097.9694 13.76953711803365
Epoch (UTC): 26 February 2015 22:06:43
Eccentricity: 0.0027839
inclination: 82.9504°
perigee height: 954 km
apogee height: 995 km
right ascension of ascending node: 200.4949°
argument of perigee: 17.2872°
revolutions per day: 13.76953711
mean anomaly at epoch: 97.9694°
orbit number at epoch: 80336

The dashed part of the orbit path shows where the satellite is in the earth's shadow,  

DLR